sat.trackr.live / text

‹ back to catalog

STARLINK-32525

NORAD 62121 · 2024-222H

PAYLOAD ACTIVE UNKNOWN

§ Identity

Operator
Country
US
Launch date
2024-11-27
Launch site
AFETR
Launch vehicle
Mass (kg)
RCS (m²)

Purposes: comms

External: N2YO · Heavens-Above · Gunter

§ Orbital elements

Epoch: 2026-05-25T04:49:35.910048Z

Period
94.26 min
Inclination
43.0000°
Eccentricity
0.0000980
Mean motion
15.27626911 rev/d
Perigee alt
482.2 km
Apogee alt
483.6 km
Semi-major
6,861.0 km
B*
1.2849e-3
RAAN
63.8115°
Arg perigee
251.4521°
Mean anomaly
108.6224°
Rev number
8,446

§ Raw data

STARLINK-325251 62121U 24222H   26145.20111007  .00035314  00000+0  12849-2 0  99952 62121  43.0000  63.8115 0000980 251.4521 108.6224 15.27626911 84467

JSON: /api/v1/satellites/62121 · /tle

For live sub-satellite position, see the globe view (requires WebGL).

§ Visibility from observer

Set your observer location to see the next 7 days of passes ≥ 10°. The values pass through the URL so the page stays shareable.

No JS? Fill the form by hand. The geolocation button needs JavaScript.